User: anonymous   Login
Location: Oshawa
(43.9000°N, 78.8670°W)
Time: 21:12:03
(UTC-04:00)
Language:

Explorer 7 - Orbit

View from above orbital plane
View from above orbital plane
View from above satellite
View from above satellite

Ground track
Ground track

The orbit data is extracted from the following two-line orbital elements,

1 00022U 59009A   16208.23692830  .00000460  00000-0  58580-4 0  9997
2 00022  50.2856 288.6741 0143713 230.2671 128.5539 14.93608660 12625
Epoch (UTC): 26 July 2016 05:41:10
Eccentricity: 0.0143713
inclination: 50.2856°
perigee height: 486 km
apogee height: 687 km
right ascension of ascending node: 288.6741°
argument of perigee: 230.2671°
revolutions per day: 14.93608660
mean anomaly at epoch: 128.5539°
orbit number at epoch: 1262

The dashed part of the orbit path shows where the satellite is in the earth's shadow,  

DLR